| time (UTC) | temp C | wind direction | speed KPH | gust KPH | rain 1hr cm | rain 24hr cm | rain mn cm | humidity % | barometer mb |
| 20260905164523 | 23 | 24 | 3.2 | 9.7 | 0.00 | 0.00 | 0.00 | 72 | 1007.5 |
| 20260905163022 | 23 | 350 | 1.6 | 8.0 | 0.00 | 0.00 | 0.00 | 70 | 1007.5 |
| 20260905161525 | 23 | 344 | 1.6 | 6.4 | 0.00 | 0.00 | 0.00 | 72 | 1007.5 |
| 20260905160034 | 24 | 346 | 4.8 | 11.3 | 0.00 | 0.00 | 0.00 | 69 | 1007.3 |
| 20260905154520 | 24 | 312 | 3.2 | 9.7 | 0.00 | 0.00 | 0.00 | 69 | 1007.3 |
| 20260905153019 | 23 | 11 | 3.2 | 14.5 | 0.00 | 0.00 | 0.00 | 69 | 1007.3 |
| 20260905151514 | 23 | 3 | 4.8 | 14.5 | 0.00 | 0.00 | 0.00 | 71 | 1007.2 |
| 20260905150011 | 23 | 353 | 0.0 | 9.7 | 0.00 | 0.00 | 0.00 | 71 | 1007.2 |
| 20260905144513 | 23 | 4 | 1.6 | 8.0 | 0.00 | 0.00 | 0.00 | 72 | 1007.2 |
| 20260905143006 | 22 | 57 | 3.2 | 8.0 | 0.00 | 0.00 | 0.00 | 72 | 1007.3 |
| 20260905141510 | 22 | 359 | 0.0 | 11.3 | 0.00 | 0.00 | 0.00 | 72 | 1007.4 |
| 20260905140002 | 22 | 3 | 4.8 | 9.7 | 0.00 | 0.00 | 0.00 | 73 | 1007.4 |
| 20260905134604 | 22 | 353 | 4.8 | 9.7 | 0.00 | 0.00 | 0.00 | 73 | 1007.4 |
| 20260905133059 | 21 | 356 | 4.8 | 12.9 | 0.00 | 0.00 | 0.00 | 74 | 1007.4 |
| 20260905131555 | 21 | 13 | 4.8 | 14.5 | 0.00 | 0.00 | 0.00 | 75 | 1007.6 |
| 20260905130055 | 21 | 16 | 6.4 | 14.5 | 0.00 | 0.00 | 0.00 | 76 | 1007.7 |
| 20260905124555 | 21 | 8 | 3.2 | 12.9 | 0.00 | 0.00 | 0.00 | 77 | 1007.5 |
| 20260905123049 | 20 | 351 | 0.0 | 6.4 | 0.00 | 0.00 | 0.00 | 78 | 1007.4 |
| 20260905121549 | 20 | 5 | 1.6 | 8.0 | 0.00 | 0.00 | 0.00 | 79 | 1007.2 |
| 20260905120058 | 20 | 8 | 1.6 | 9.7 | 0.00 | 0.00 | 0.00 | 80 | 1007.1 |
| 20260905114559 | 19 | 9 | 0.0 | 4.8 | 0.00 | 0.00 | 0.00 | 82 | 1007.3 |
| 20260905113055 | 18 | 5 | 1.6 | 6.4 | 0.00 | 0.00 | 0.00 | 83 | 1007.1 |
| 20260905111632 | 18 | 5 | 0.0 | 6.4 | 0.00 | 0.00 | 0.00 | 85 | 1007.1 |
| 20260905110043 | 17 | 358 | 0.0 | 1.6 | 0.00 | 0.00 | 0.00 | 87 | 1006.9 |
| 20260905104542 | 17 | 5 | 0.0 | 0.0 | 0.00 | 0.00 | 0.00 | 87 | 1006.8 |
| 20260905103040 | 17 | 5 | 0.0 | 0.0 | 0.00 | 0.00 | 0.00 | 86 | 1006.6 |
| 20260905101539 | 18 | 5 | 0.0 | 1.6 | 0.00 | 0.00 | 0.00 | 84 | 1006.5 |
| 20260905100035 | 18 | 12 | 0.0 | 3.2 | 0.00 | 0.00 | 0.00 | 85 | 1006.4 |
| 20260905094531 | 18 | 8 | 0.0 | 3.2 | 0.00 | 0.00 | 0.00 | 84 | 1006.4 |
| 20260905093029 | 17 | 5 | 0.0 | 1.6 | 0.00 | 0.00 | 0.00 | 85 | 1006.4 |
| 20260905091526 | 18 | 5 | 0.0 | 0.0 | 0.00 | 0.00 | 0.00 | 85 | 1006.3 |
| 20260905090025 | 18 | 5 | 0.0 | 0.0 | 0.00 | 0.00 | 0.00 | 84 | 1006.2 |
| 20260905084524 | 18 | 5 | 0.0 | 3.2 | 0.00 | 0.00 | 0.00 | 82 | 1006.3 |
| 20260905083024 | 18 | 8 | 0.0 | 3.2 | 0.00 | 0.00 | 0.00 | 83 | 1006.3 |
| 20260905081523 | 18 | 355 | 0.0 | 1.6 | 0.00 | 0.00 | 0.00 | 85 | 1006.3 |
| 20260905080030 | 18 | 8 | 0.0 | 0.0 | 0.00 | 0.00 | 0.00 | 85 | 1006.3 |
| 20260905074522 | 18 | 8 | 0.0 | 3.2 | 0.00 | 0.00 | 0.00 | 86 | 1006.3 |
| 20260905073028 | 18 | 169 | 0.0 | 0.0 | 0.00 | 0.00 | 0.00 | 86 | 1006.5 |
| 20260905071520 | 18 | 169 | 0.0 | 0.0 | 0.00 | 0.00 | 0.00 | 86 | 1006.5 |
| 20260905070026 | 18 | 169 | 0.0 | 0.0 | 0.00 | 0.00 | 0.00 | 86 | 1006.6 |
| 20260905064534 | 18 | 169 | 0.0 | 0.0 | 0.00 | 0.00 | 0.00 | 84 | 1006.7 |
| 20260905063014 | 18 | 169 | 0.0 | 0.0 | 0.00 | 0.00 | 0.00 | 85 | 1007.0 |
| 20260905061511 | 18 | 169 | 0.0 | 0.0 | 0.00 | 0.00 | 0.00 | 84 | 1007.0 |
| 20260905060010 | 19 | 169 | 0.0 | 0.0 | 0.00 | 0.00 | 0.00 | 84 | 1007.1 |
| 20260905054510 | 19 | 169 | 0.0 | 0.0 | 0.00 | 0.00 | 0.00 | 85 | 1007.1 |
| 20260905053006 | 19 | 169 | 0.0 | 0.0 | 0.00 | 0.00 | 0.00 | 84 | 1007.3 |
| 20260905051511 | 20 | 169 | 0.0 | 0.0 | 0.00 | 0.00 | 0.00 | 83 | 1007.3 |
| 20260905050001 | 20 | 169 | 0.0 | 0.0 | 0.00 | 0.00 | 0.00 | 83 | 1007.3 |
| 20260905044600 | 20 | 169 | 0.0 | 0.0 | 0.00 | 0.00 | 0.00 | 82 | 1007.4 |
| 20260905043104 | 20 | 169 | 0.0 | 0.0 | 0.00 | 0.00 | 0.00 | 80 | 1007.3 |
| 20260905041559 | 20 | 168 | 0.0 | 0.0 | 0.00 | 0.00 | 0.00 | 79 | 1007.3 |
| 20260905040053 | 20 | 168 | 0.0 | 0.0 | 0.00 | 0.00 | 0.00 | 80 | 1007.3 |
| 20260905034551 | 20 | 168 | 0.0 | 0.0 | 0.00 | 0.00 | 0.00 | 80 | 1007.2 |
| 20260905033049 | 21 | 168 | 0.0 | 0.0 | 0.00 | 0.00 | 0.00 | 78 | 1007.1 |
| 20260905031547 | 21 | 168 | 0.0 | 0.0 | 0.00 | 0.00 | 0.00 | 78 | 1006.9 |
| 20260905030048 | 21 | 168 | 0.0 | 0.0 | 0.00 | 0.00 | 0.00 | 77 | 1007.0 |
| 20260905024549 | 21 | 168 | 0.0 | 0.0 | 0.00 | 0.00 | 0.00 | 76 | 1006.9 |
| 20260905023044 | 21 | 168 | 0.0 | 0.0 | 0.00 | 0.00 | 0.00 | 76 | 1006.8 |
| 20260905021543 | 22 | 168 | 0.0 | 0.0 | 0.00 | 0.00 | 0.00 | 74 | 1006.9 |
| 20260905020041 | 22 | 169 | 0.0 | 0.0 | 0.00 | 0.00 | 0.00 | 73 | 1007.0 |
| 20260905014551 | 22 | 186 | 0.0 | 0.0 | 0.00 | 0.00 | 0.00 | 73 | 1007.2 |
| 20260905013040 | 22 | 186 | 0.0 | 0.0 | 0.00 | 0.00 | 0.00 | 71 | 1007.3 |
| 20260905011538 | 23 | 186 | 0.0 | 0.0 | 0.00 | 0.00 | 0.00 | 71 | 1007.3 |
| 20260905010039 | 23 | 185 | 0.0 | 0.0 | 0.00 | 0.00 | 0.00 | 70 | 1007.3 |
| 20260905004538 | 23 | 211 | 0.0 | 0.0 | 0.00 | 0.00 | 0.00 | 70 | 1007.4 |
| 20260905003037 | 23 | 49 | 0.0 | 0.0 | 0.00 | 0.00 | 0.00 | 70 | 1007.3 |
| 20260905001536 | 23 | 49 | 0.0 | 0.0 | 0.00 | 0.00 | 0.00 | 68 | 1007.0 |
| 20260905000038 | 24 | 16 | 0.0 | 0.0 | 0.00 | 0.00 | 0.00 | 67 | 1006.9 |
| 20260904234536 | 25 | 17 | 0.0 | 3.2 | 0.00 | 0.00 | 0.00 | 66 | 1006.7 |
| 20260904233035 | 25 | 17 | 0.0 | 4.8 | 0.00 | 0.00 | 0.00 | 66 | 1006.8 |
| 20260904231535 | 25 | 18 | 0.0 | 1.6 | 0.00 | 0.00 | 0.00 | 65 | 1006.6 |
| 20260904230034 | 26 | 5 | 0.0 | 3.2 | 0.00 | 0.00 | 0.00 | 64 | 1006.6 |
| 20260904224533 | 26 | 180 | 0.0 | 6.4 | 0.00 | 0.00 | 0.00 | 63 | 1006.5 |
| 20260904223043 | 26 | 5 | 0.0 | 4.8 | 0.00 | 0.00 | 0.00 | 62 | 1006.5 |
| 20260904221544 | 26 | 7 | 0.0 | 6.4 | 0.00 | 0.00 | 0.00 | 60 | 1006.3 |
| 20260904220035 | 27 | 170 | 0.0 | 6.4 | 0.00 | 0.00 | 0.00 | 60 | 1006.3 |
| 20260904214536 | 27 | 6 | 1.6 | 8.0 | 0.00 | 0.00 | 0.00 | 58 | 1006.3 |
| 20260904213031 | 27 | 9 | 1.6 | 6.4 | 0.00 | 0.00 | 0.00 | 58 | 1006.4 |
| 20260904211535 | 28 | 360 | 0.0 | 9.7 | 0.00 | 0.00 | 0.00 | 58 | 1006.3 |
| 20260904210029 | 28 | 164 | 1.6 | 9.7 | 0.00 | 0.00 | 0.00 | 54 | 1006.3 |
| 20260904204529 | 28 | 320 | 4.8 | 17.7 | 0.00 | 0.00 | 0.00 | 51 | 1006.3 |
| 20260904203032 | 29 | 18 | 0.0 | 16.1 | 0.00 | 0.00 | 0.00 | 52 | 1006.3 |
| 20260904201530 | 30 | 355 | 1.6 | 9.7 | 0.00 | 0.00 | 0.00 | 49 | 1006.4 |
| 20260904200024 | 30 | 356 | 4.8 | 11.3 | 0.00 | 0.00 | 0.00 | 47 | 1006.3 |
| 20260904194548 | 30 | 359 | 1.6 | 9.7 | 0.00 | 0.00 | 0.00 | 51 | 1006.2 |
| 20260904193034 | 30 | 330 | 0.0 | 9.7 | 0.00 | 0.00 | 0.00 | 54 | 1006.2 |
| 20260904191516 | 28 | 5 | 4.8 | 12.9 | 0.00 | 0.00 | 0.00 | 55 | 1006.5 |
| 20260904190016 | 29 | 11 | 4.8 | 14.5 | 0.00 | 0.00 | 0.00 | 56 | 1006.5 |
| 20260904184514 | 30 | 351 | 3.2 | 9.7 | 0.00 | 0.00 | 0.00 | 59 | 1006.5 |
| 20260904183014 | 29 | 37 | 3.2 | 9.7 | 0.00 | 0.00 | 0.00 | 57 | 1006.4 |
| 20260904181512 | 28 | 355 | 1.6 | 14.5 | 0.00 | 0.00 | 0.00 | 60 | 1006.4 |
| 20260904180011 | 29 | 7 | 0.0 | 9.7 | 0.00 | 0.00 | 0.00 | 59 | 1006.3 |
| 20260904174510 | 29 | 353 | 1.6 | 11.3 | 0.00 | 0.00 | 0.00 | 58 | 1006.5 |
| 20260904173008 | 29 | 173 | 0.0 | 11.3 | 0.00 | 0.00 | 0.00 | 59 | 1006.6 |
| 20260904171504 | 29 | 182 | 0.0 | 8.0 | 0.00 | 0.00 | 0.00 | 60 | 1006.6 |
| 20260904170001 | 28 | 356 | 1.6 | 11.3 | 0.00 | 0.00 | 0.00 | 61 | 1006.7 |